Powrót do katalogu

FENGYUN 1C DEB

AktywnyPO
NORAD 35121·DEBRIS·🇨🇳 China

Wystrzelony May 10, 1999 z Taiyuan Satellite Launch Center

Loading…

Następne Przeloty (najbliższe 24 godziny)

TLE

NieaktualneSource: Space-Track

Epoka: Aug 30, 2026, 19:50 UTC

1 35121U 99025DKZ 26242.82682635 -.00000107  00000-0 -38926-4 0  9995
2 35121  98.2744  88.6832 0158557  74.0549 287.8026 14.04907300647573

Śledź FENGYUN 1C DEB w czasie rzeczywistym z AllMySat

Download on the App Store